Weather in Hazyview

South Africa     25°02′39″S   31°07′43″E
temp.,
°C
wind,
m/s
gust,
m/s
humid.,
%
clouds,
%
prec.,
mm/h
press.,
hPa
HPBL,
m
21 january, thu
thu2123:00+22se4108994 0.5 1018681
02:00+19s299382 0.8 1017412
05:00+19sw249121 0.1 1018145
08:00+21se138552 0.3 1018353
11:00+27se256589 0.8 1016946
14:00+31ese454677 0.8 10131831
17:00+29ese565043 0.0 10131706
20:00+23ese398022 0.0 1015439
22 january, fri
fri2223:00+21se259629 0.2 1018302
02:00+20s129756 0.4 101637
05:00+19ssw119824 0.0 101624
08:00+24sse247517 0.0 1016625
11:00+30ese34458 0.0 10141240
14:00+33e34294 0.0 10111731
17:00+31ese45350 0.0 10101614
20:00+22ese39618 0.0 1013382
23 january, sat
sat2323:00+19ssw23810 0.0 101576
02:00+17se11890 0.0 101229
05:00+16sw12946 0.0 101232
08:00+22ese237141 0.0 1012537
11:00+29s334098 0.0 1011767
14:00+32ese444793 0.0 10081614
17:00+27e3670100 1.3 1008384
20:00+22w1193100 4.1 100924
24 january, sun
sun2423:00+22s269697 0.9 1009216
02:00+22s389698 3.7 1008323
05:00+22s499599 1.8 1008335
08:00+24sse498999 6.8 1008614
11:00+24se499294 5.6 1008679
14:00+22sse5109398 13.4 1008686
17:00+22se61298100 9.2 1008735
20:00+22ese51298100 19.0 1009749
25 january, mon
mon2523:00+22se51197100 5.3 1011661
02:00+20sse51097100 17.5 1010586
05:00+20se51298100 15.9 1011732
08:00+20se61398100 23.3 1013671
11:00+20sse51197100 2.5 1013645
14:00+21se4998100 9.3 1012496
17:00+21sse3795100 1.8 1012243
20:00+21s3797100 3.4 1014251